Flag Weather past 2 weeks in Mülheim, North Rhine-Westphalia, Germany

Now
48 °F

Light rain. Passing clouds.


Feels Like: 44 °F
Forecast: 36 / 44 °F
Wind: 10 mph from Northwest

Location: Koeln / Bonn

Current Time: Nov 24, 2014 at 7:48:24 AM

Latest Report: Nov 24, 2014 at 7:20 AM


Visibility: N/A

Pressure: 30.18 "Hg

Humidity: 94%

Dew point: 46 °F

Location of MülheimLocation

Historic Weather in Mülheim — Graph

°F

Mülheim temperature yesterday

Maximum temperature yesterday: 55 °F (at 2:20 PM)
Minimum temperature yesterday: 45 °F (at 8:20 AM)
Average temperature yesterday: 50 °F

Past Weeks' High & Low Weather Summary

 TemperatureHumidityPressure
High55 °F (Nov 10, 3:20 PM)100% (Nov 10, 3:20 AM)30.33 "Hg (Nov 10, 3:20 AM)
Low32 °F (Nov 20, 3:20 AM)58% (Nov 21, 1:50 PM)29.53 "Hg (Nov 16, 2:20 PM)
Average47 °F86%29.87 "Hg
* Reported Nov 9 6:20 AM — Nov 24 6:50 AM, Mülheim, Weather by CustomWeather, © 2014

Note: Actual official high and low records may vary slightly from our data, if they occured in-between our weather recording intervals... More about our weather records

Advertising

Mülheim weather history for previous 24 hours

 ConditionsComfort  
Time TempWeatherWind HumidityBarometerVisibility
6:50 AM
Nov 24
48 °FLight rain. Passing clouds.10 mph94%30.18 "HgN/A
6:20 AM48 °FLight rain. Passing clouds.8 mph94%30.15 "HgN/A
5:50 AM48 °FPassing clouds.8 mph94%30.15 "HgN/A
5:20 AM50 °FPassing clouds.8 mph88%30.12 "HgN/A
4:50 AM50 °FPassing clouds.14 mph94%30.09 "HgN/A
4:20 AM50 °FPassing clouds.5 mph88%30.09 "Hg2 mi
3:50 AM50 °FLight rain. Passing clouds.2 mph88%30.07 "HgN/A
3:20 AM50 °FPassing clouds.1 mph88%30.07 "HgN/A
2:50 AM50 °FPassing clouds.2 mph82%30.04 "HgN/A
2:20 AM50 °FLight rain. Passing clouds.5 mph82%30.04 "HgN/A
1:50 AM50 °FLight rain. Passing clouds.6 mph82%30.04 "HgN/A
1:20 AM50 °FPartly cloudy.7 mph82%30.04 "HgN/A
12:50 AM50 °FClear.7 mph82%30.04 "Hg10 mi
12:20 AM50 °FClear.7 mph82%30.01 "Hg10 mi
11:50 PM
Nov 23
50 °FClear.8 mph76%30.01 "Hg10 mi
11:20 PM50 °FClear.10 mph76%30.01 "Hg10 mi
10:50 PM50 °FClear.13 mph76%30.01 "Hg10 mi
10:20 PM50 °FClear.9 mph76%30.01 "Hg10 mi
9:20 PM50 °FClear.12 mph76%30.01 "Hg10 mi
8:50 PM50 °FClear.13 mph76%30.01 "Hg10 mi
8:20 PM50 °FClear.10 mph76%30.01 "Hg10 mi
7:50 PM50 °FClear.9 mph76%30.01 "Hg10 mi
7:20 PM50 °FLight rain. Clear.10 mph76%30.01 "HgN/A
6:50 PM50 °FClear.10 mph76%30.01 "Hg10 mi
6:20 PM50 °FClear.14 mph76%30.01 "Hg10 mi
5:50 PM50 °FClear.12 mph76%30.01 "Hg10 mi
5:20 PM50 °FClear.13 mph76%30.01 "Hg10 mi
4:50 PM52 °FClear.12 mph77%30.01 "Hg10 mi
4:20 PM54 °FSunny.14 mph72%30.01 "Hg10 mi
3:50 PM54 °FSunny.13 mph72%30.04 "Hg10 mi
3:20 PM54 °FSunny.14 mph72%30.04 "Hg10 mi
2:50 PM55 °FSunny.14 mph72%30.04 "Hg10 mi
2:20 PM55 °FSunny.13 mph67%30.04 "Hg10 mi
1:50 PM54 °FSunny.13 mph72%30.07 "Hg10 mi
1:20 PM52 °FSunny.12 mph77%30.07 "Hg10 mi
12:50 PM52 °FSunny.16 mph72%30.09 "Hg10 mi
12:20 PM52 °FSunny.13 mph72%30.09 "Hg10 mi
11:50 AM52 °FSunny.12 mph72%30.09 "Hg10 mi
11:20 AM50 °FSunny.12 mph76%30.09 "Hg10 mi
10:50 AM50 °FSunny.10 mph76%30.12 "Hg10 mi
10:20 AM48 °FSunny.10 mph82%30.09 "Hg10 mi
9:50 AM48 °FSunny.13 mph82%30.09 "Hg10 mi
9:20 AM46 °FSunny.10 mph82%30.12 "Hg10 mi
8:50 AM45 °FSunny.12 mph87%30.09 "Hg10 mi
8:20 AM45 °FSunny.12 mph87%30.12 "Hg10 mi
7:50 AM46 °FClear.10 mph82%30.09 "Hg10 mi
7:20 AM46 °FClear.13 mph87%30.09 "Hg10 mi
Weather by CustomWeather, © 2014

See weather overviewHow to use our weather pages